Showing default

SNUSAT-2, 43782

Orbit data source: Space-Track

SNUSAT-2, 43782 is a payload satellite owned by SNU (KR) in SSO that was launched on Mon, 03 Dec 2018 UTC via an FALCON 9 launch vehicle from the Air Force Western Test Range (AFWTR). Payload-class satellites include a variety of spacecraft equipped with specific instruments for various scientific and technological missions. These include communications satellites like Starlink; space stations such as the ISS; scientific satellites like the Hubble; Earth observation satellites from companies like Planet Labs, Umbra, and HawkEye 360; GPS; miniature CubeSats for education and research; and military/defense satellites.

Loading next visibility...
Identifier
43782, 2018-099AA
Orbit
SSO
Country
Flag of KRKR / SKOR
Related business
Manufacturer
SNU
Mission
Operational Amateur Technology
Bus & Motor
CUBESAT 3U, Unknown motor
Mass
4 kg wet, 4 kg dry
Launch date (UTC)
2018-12-03 (8 years ago)
Launch vehicle
FALCON 9
Launch site
Air Force Western Test Range (AFWTR)
Object type
Payload
Rocket body
Debris
Shape & HBR
Box, 0.2 m
Radar Cross Section
0.035 m², Medium (>0.1 m² and < 1m²)

Expand to show TLE details & history
Last TLE update: 2 days ago

TLE from 2 days ago
0 SNUSAT-2
1 43782U 18099AA  26261.13610748  .00004914  00000-0  21133-3 0  9999
2 43782  97.3962 313.1241 0009052 338.1889  21.8961 15.23071167427174
Epoch: 2026-09-18T03:15Z
TLE epoch observation values (Epoch: 2026-09-18T03:15:59.686Z)
Latitude
-0.00003°
Longitude
-92.93792°
Altitude
493.904 km
Speed
7.621 km/s
True Right ascension
20h 52m 29s
True Declination
0° 00' 00"
Sunlit
Object was in full shadow at epoch
Visualization orbit readout
Latitude
Unknown
Longitude
Unknown
Altitude
Unknown
Speed
Unknown
Apparent Right ascension
Unknown
Apparent Declination
Unknown
Sunlit
N/A
Visualization observer readout
Local Sidereal Time
07:58:23
Azimuth
Unknown
Elevation
Unknown
Doppler factor
Unknown
Orbital elements
Apogee altitude
499.765 km
Perigee altitude
487.325 km
Semi-major axis
6,871.682 km
Eccentricity
0.00091
Inclination
97.3962°
RAAN
313.1241°
Arg. of periapsis
338.1889°
True anomaly
21.93482°
Mean anomaly
21.8961°
Eccentric anomaly
21.91546°
Mean motion
3.81021 °/min
Orbital period
94.48 mins
BSTAR
0.00021133
Loading maneuver chart data...
Computing Atmospheric mass density...

Documentation

Showing up to 5 results
|